Weather History for Seward, AK

Change the Weather History Date:

Wednesday, August 7, 2013

  Actual Average Record
Temperature  
Mean Temperature 54 °F -  
Max Temperature 57 °F 61 °F 79 °F (1957)
Min Temperature 51 °F 50 °F 42 °F (1961)
Degree Days  
Heating Degree Days 11    
Growing Degree Days 4 (Base 50)    
Moisture  
Dew Point 53 °F    
Average Humidity 91    
Maximum Humidity 100    
Minimum Humidity 81    
Precipitation  
Precipitation 0.66 in - - ()
Sea Level Pressure  
Sea Level Pressure 29.83 in    
Wind  
Wind Speed 6 mph (SSE)    
Max Wind Speed 14 mph    
Max Gust Speed 25 mph    
Visibility 8 miles    
Events Rain    
Averages and records for this station are not official NWS values.
T = Trace of Precipitation, MM = Missing Value Source: NWS Daily Summary

Daily Weather History Graph

Daily Weather History Graph

Search for Another Location

Airport:

Trip Planner

Search our weather history database for the weather conditions in past years. The results will help you decide how hot, cold, wet, or windy it might be!

Date:

Astronomy

Aug. 07, 2013 Rise Set
Actual Time 5:53 AM AKDT 10:11 PM AKDT
Civil Twilight 4:56 AM AKDT 11:07 PM AKDT
Nautical Twilight 3:20 AM AKDT 12:40 AM AKDT
Astronomical Twilight Sun does not rise Sun does not rise
Moon 7:25 AM AKDT (8/7) 9:41 PM AKDT (8/7)
Length of Visible Light 18h 10m
Length of Day
16h 18m
New Moon, 1% of the Moon is Illuminated
Aug 7
New Moon
Aug 14
First Quarter
Aug 20
Full
Aug 28
Last Quarter
Sep 5
New

Hourly Weather History & Observations

Time (AKDT) Temp. Dew Point Humidity Pressure Visibility Wind Dir Wind Speed Gust Speed Precip Events Conditions
12:53 AM 54.0 °F 53.1 °F 97% 29.93 in 5.0 mi ESE 4.6 mph - 0.04 in Rain Light Rain
1:53 AM 55.0 °F 53.1 °F 93% 29.92 in 9.0 mi North - - 0.07 in Rain Light Rain
2:53 AM 57.0 °F 53.1 °F 87% 29.91 in 8.0 mi North - - 0.03 in Rain Light Rain
3:53 AM 55.9 °F 53.1 °F 90% 29.90 in 10.0 mi North - - 0.04 in Rain Light Rain
4:53 AM 57.0 °F 52.0 °F 83% 29.88 in 10.0 mi SSW 13.8 mph - 0.01 in   Overcast
5:53 AM 55.9 °F 52.0 °F 87% 29.88 in 8.0 mi South 5.8 mph - 0.02 in Rain Light Rain
6:53 AM 57.0 °F 53.1 °F 87% 29.87 in 7.0 mi South 9.2 mph 17.3 mph 0.02 in Rain Light Rain
7:53 AM 57.0 °F 52.0 °F 83% 29.86 in 10.0 mi South 12.7 mph 25.3 mph 0.02 in Rain Light Rain
8:53 AM 55.9 °F 52.0 °F 87% 29.86 in 10.0 mi SE 8.1 mph - 0.01 in   Overcast
9:53 AM 57.0 °F 51.1 °F 81% 29.85 in 10.0 mi SSE 8.1 mph - N/A   Overcast
10:53 AM 57.0 °F 53.1 °F 87% 29.85 in 10.0 mi Calm Calm - N/A   Overcast
11:53 AM 54.0 °F 52.0 °F 93% 29.86 in 8.0 mi SSE 4.6 mph - 0.00 in Rain Light Rain
12:53 PM 55.0 °F 54.0 °F 96% 29.85 in 9.0 mi ESE 3.5 mph - 0.01 in Rain Light Rain
1:53 PM 55.9 °F 54.0 °F 93% 29.83 in 10.0 mi Calm Calm - 0.02 in Rain Light Rain
2:53 PM 55.9 °F 53.1 °F 90% 29.83 in 10.0 mi SSE 4.6 mph - 0.01 in Rain Light Rain
3:53 PM 55.0 °F 52.0 °F 89% 29.82 in 10.0 mi SSE 10.4 mph - 0.01 in Rain Light Rain
4:53 PM 55.9 °F 53.1 °F 90% 29.81 in 8.0 mi SSE 6.9 mph - 0.01 in Rain Light Rain
5:53 PM 55.9 °F 51.1 °F 84% 29.80 in 8.0 mi South 5.8 mph 18.4 mph 0.06 in Rain Light Rain
6:53 PM 53.1 °F 51.1 °F 93% 29.79 in 7.0 mi ESE 5.8 mph - 0.05 in Rain Light Rain
7:53 PM 55.0 °F 52.0 °F 89% 29.79 in 5.0 mi South 6.9 mph - 0.06 in Rain Rain
8:53 PM 55.0 °F 53.1 °F 93% 29.78 in 10.0 mi Calm Calm - 0.03 in Rain Light Rain
9:31 PM 53.6 °F 53.6 °F 100% 29.77 in 1.8 mi ENE 4.6 mph - 0.02 in Rain Light Rain
9:41 PM 53.6 °F 51.8 °F 94% 29.77 in 3.0 mi Calm Calm - 0.02 in Rain Light Rain
9:53 PM 54.0 °F 53.1 °F 97% 29.78 in 6.0 mi Calm Calm - 0.03 in Rain Light Rain
10:53 PM 54.0 °F 53.1 °F 97% 29.77 in 7.0 mi Calm Calm - 0.05 in Rain Light Rain
11:46 PM 51.8 °F 51.8 °F 100% 29.77 in 1.8 mi SSE 3.5 mph - 0.05 in Rain Light Rain
11:53 PM 53.1 °F 52.0 °F 96% 29.78 in 1.8 mi SSE 3.5 mph - 0.06 in Rain Light Rain